Corpus Christi, TX

3:32 AM CDT on August 22, 2017 (GMT -0500)
Corpus Christi International

Weather History for KCRP - February, 2013

Change the Weather History Date:

Monday, February 18, 2013

  Actual Average Record
Temperature  
Mean Temperature 74 °F 61 °F  
Max Temperature 84 °F 71 °F 94 °F (1986)
Min Temperature 64 °F 51 °F 25 °F (1936)
Degree Days  
Heating Degree Days 0 6  
Month to date heating degree days 40 124  
Since 1 July heating degree days 423 751  
Cooling Degree Days 9 2  
Month to date cooling degree days 55 29  
Year to date cooling degree days 122 59  
Growing Degree Days 24 (Base 50)    
Moisture  
Dew Point 61 °F    
Average Humidity 68    
Maximum Humidity 84    
Minimum Humidity 51    
Precipitation  
Precipitation T in 0.07 in 1.59 in (1905)
Month to date precipitation 0.43 1.20  
Year to date precipitation 1.68 2.74  
Snow  
Snow 0.00 in - - ()
Month to date snowfall 0.0  
Since 1 July snowfall 0.0  
Snow Depth 0.00 in    
Sea Level Pressure  
Sea Level Pressure 29.93 in    
Wind  
Wind Speed 19 mph (SSE)    
Max Wind Speed 28 mph    
Max Gust Speed 35 mph    
Visibility 10 miles    
Events      
T = Trace of Precipitation, MM = Missing Value Source: NWS Daily Summary

Daily Weather History Graph

Daily Weather History Graph

Search for Another Location

Airport or City:

Trip Planner

Search our weather history database for the weather conditions in past years. The results will help you decide how hot, cold, wet, or windy it might be!

Date:

Astronomy

Feb. 18, 2013 Rise Set
Actual Time 7:04 AM CST 6:23 PM CST
Civil Twilight 6:40 AM CST 6:47 PM CST
Nautical Twilight 6:13 AM CST 7:14 PM CST
Astronomical Twilight 5:46 AM CST 7:42 PM CST
Moon 12:24 PM CST (2/18) 1:31 AM CST (2/18)
Length of Visible Light 12h 06m
Length of Day
11h 19m
First Quarter, 58% of the Moon is Illuminated
Feb 18
First Quarter
Feb 25
Full
Mar 4
Last Quarter
Mar 11
New
Mar 19
First Quarter

Hourly Weather History & Observations

Time (CST) Temp. Heat Index Dew Point Humidity Pressure Visibility Wind Dir Wind Speed Gust Speed Precip Events Conditions
12:51 AM 68.0 °F - 57.0 °F 68% 30.00 in 10.0 mi SSE 19.6 mph - N/A   Overcast
1:51 AM 68.0 °F - 57.0 °F 68% 29.98 in 10.0 mi SSE 18.4 mph - N/A   Overcast
2:51 AM 68.0 °F - 57.9 °F 70% 29.96 in 10.0 mi SSE 19.6 mph - N/A   Overcast
3:51 AM 68.0 °F - 57.9 °F 70% 29.93 in 10.0 mi SSE 19.6 mph - N/A   Overcast
4:51 AM 66.9 °F - 59.0 °F 76% 29.91 in 10.0 mi SSE 16.1 mph - N/A   Overcast
5:51 AM 68.0 °F - 60.1 °F 76% 29.91 in 10.0 mi SSE 19.6 mph - N/A   Overcast
7:05 AM 68.0 °F - 60.8 °F 78% 29.92 in 10.0 mi SSE 17.3 mph - 0.00 in   Overcast
7:51 AM 69.1 °F - 61.0 °F 75% 29.93 in 10.0 mi South 16.1 mph - 0.00 in   Overcast
8:51 AM 70.0 °F - 62.1 °F 76% 29.94 in 10.0 mi South 20.7 mph - N/A   Mostly Cloudy
9:38 AM 71.6 °F - 62.6 °F 73% 29.94 in 10.0 mi South 21.9 mph - N/A   Mostly Cloudy
9:51 AM 73.0 °F - 62.1 °F 68% 29.94 in 10.0 mi South 23.0 mph - N/A   Mostly Cloudy
10:51 AM 75.9 °F - 63.0 °F 64% 29.93 in 10.0 mi South 26.5 mph - N/A   Mostly Cloudy
11:51 AM 77.0 °F - 63.0 °F 62% 29.94 in 10.0 mi South 18.4 mph 25.3 mph N/A   Mostly Cloudy
12:51 PM 80.1 °F 81.5 °F 63.0 °F 56% 29.91 in 10.0 mi South 18.4 mph 26.5 mph N/A   Mostly Cloudy
1:51 PM 82.9 °F 84.4 °F 64.0 °F 53% 29.87 in 10.0 mi SSE 19.6 mph - N/A   Mostly Cloudy
2:51 PM 82.9 °F 84.4 °F 64.0 °F 53% 29.86 in 10.0 mi SE 24.2 mph 29.9 mph N/A   Scattered Clouds
3:51 PM 81.0 °F 81.9 °F 62.1 °F 52% 29.84 in 10.0 mi SSE 26.5 mph 32.2 mph N/A   Scattered Clouds
4:51 PM 80.1 °F 81.1 °F 61.0 °F 52% 29.85 in 10.0 mi SSE 25.3 mph - N/A   Partly Cloudy
5:51 PM 75.9 °F - 61.0 °F 60% 29.87 in 10.0 mi SSE 24.2 mph - N/A   Partly Cloudy
6:51 PM 73.0 °F - 60.1 °F 64% 29.89 in 10.0 mi SSE 19.6 mph - N/A   Partly Cloudy
7:51 PM 71.1 °F - 61.0 °F 70% 29.93 in 10.0 mi South 16.1 mph - N/A   Partly Cloudy
8:51 PM 69.1 °F - 60.1 °F 73% 29.96 in 10.0 mi SSE 8.1 mph - N/A   Partly Cloudy
9:51 PM 68.0 °F - 60.1 °F 76% 29.98 in 10.0 mi South 11.5 mph - N/A   Clear
10:51 PM 64.9 °F - 59.0 °F 81% 30.00 in 10.0 mi South 9.2 mph - N/A   Clear
11:51 PM 64.0 °F - 59.0 °F 84% 29.99 in 10.0 mi South 9.2 mph - N/A   Clear